Location: *
(48.8667°N, 2.3331°E)
Time: 09:26:52
(UTC+00:00)

Cosmos 2061 Rocket - Pass Details

Date: 14 August 2020
Orbit: 966 x 1012 km, 82.9° (Epoch: 23 September)

Event Time Altitude Azimuth Distance (km) Brightness Sun altitude
Exits shadow 23:51:29 10° 257° (WSW) 2,738 6.2 -27.2°
Reaches altitude 10° 23:51:37 10° 258° (WSW) 2,710 6.2 -27.2°
Maximum altitude 23:55:42 18° 300° (WNW) 2,184 6.1 -27.2°
Drops below altitude 10° 23:59:49 10° 342° (NNW) 2,719 7.2 -27.2°
Sets 00:03:17 0° 1° (N) 3,674 8.3 -27.1°
